Location: Marcé
(47.5801°N, 0.3280°W)
Time: 03:46:50
(UTC+01:00)

deb Explorer IX - Pass Details

Date: 30 November 2021
Orbit: 544 x 1082 km, 38.8° (Epoch: 19 January)

Event Time Altitude Azimuth Distance (km) Brightness Sun altitude
Rises 12:43:06 0° 219° (SW) 2,814 ? 20.7°
Reaches altitude 10° 12:46:16 10° 196° (SSW) 1,852 ? 20.7°
Maximum altitude 12:48:40 15° 160° (SSE) 1,533 ? 20.7°
Drops below altitude 10° 12:51:00 10° 125° (SE) 1,806 ? 20.7°
Sets 12:54:02 0° 101° (ESE) 2,699 ? 20.7°
